RH
33 33 33 33 34 33 33 32 33 31 29 29 30 30 29 28 29 29 27 27 26 23 20 17 15 14 11 9 8 8 7 7 7 7 7 6 6 6 6 6 6 6 6 6 6 6 6 7 7 7 7 8 8 8 9 9 10 10 10 11 12 12 12 12 12 12 12 11 11 11 11 11 10 10 10 11 11 11 11 12 13 14 15 16 17 17
33 33 33 33 32 31 31 30 31 31 29 30 31 31 31 29 29 29 28 26 25 23 19 16 15 13 10 8 7 7 6 6 7 6 6 6 6 6 6 6 6 6 6 6 6 6 6 6 6 7 7 7 7 8 8 9 9 9 9 10 10 10 10 10 10 10 10 10 10 10 10 10 10 9 10 9 10 10 10 10 10 11 12 13 13 14
35 34 33 32 31 30 29 29 31 32 32 31 32 31 31 30 28 29 28 26 24 21 17 15 14 11 9 8 6 6 6 6 6 6 6 6 6 6 6 6 6 6 6 6 6 6 6 7 6 7 7 7 7 8 8 8 8 8 8 9 9 9 9 9 9 8 9 9 9 9 9 9 9 9 9 9 9 9 9 9 9 10 10 11 11 12
35 33 31 30 29 29 29 29 30 33 35 34 34 33 32 31 29 29 27 25 23 20 17 15 13 10 8 7 6 6 6 6 6 6 6 6 6 6 6 6 6 6 6 6 6 6 6 6 7 7 6 7 7 7 7 7 7 7 8 8 8 8 8 7 7 7 7 7 8 8 8 8 8 8 8 8 8 8 8 9 9 9 9 10 10 10
32 30 29 28 28 28 28 29 30 34 36 37 36 34 33 32 30 30 28 25 22 19 16 14 11 9 8 6 6 6 6 6 6 6 6 6 6 6 6 6 6 6 6 6 6 6 6 6 6 6 6 6 6 6 6 6 6 7 7 7 7 7 7 6 6 7 7 6 7 7 7 7 7 7 7 7 7 8 8 9 9 9 9 9 9 9
29 28 28 29 29 28 29 29 31 34 36 37 37 35 33 31 30 29 28 25 21 17 15 12 9 8 7 6 5 5 6 6 6 6 6 6 6 6 5 5 5 5 5 5 5 5 5 5 5 5 5 5 5 5 5 5 5 6 6 6 6 6 6 6 6 6 6 6 6 6 6 6 6 6 7 7 7 8 8 9 9 9 9 9 9 9
28 27 27 29 31 30 30 30 31 34 36 37 36 35 32 31 29 28 27 24 20 16 14 11 8 7 7 5 5 6 6 6 6 6 6 5 5 5 5 5 4 4 4 4 5 4 4 4 4 4 4 4 4 4 4 4 4 4 5 5 5 5 5 5 5 5 5 5 5 5 5 5 6 6 6 7 7 7 8 9 9 9 9 9 9 9
28 29 29 31 34 34 33 32 32 34 36 36 36 35 32 31 29 27 26 23 19 16 13 10 8 7 7 6 6 6 6 6 6 6 5 5 4 4 4 4 4 4 4 4 4 4 4 4 4 3 4 3 3 3 3 3 3 4 4 4 4 4 4 4 4 4 4 4 4 4 5 5 5 5 5 6 6 6 7 7 8 8 8 8 8 8
30 31 32 33 35 38 37 35 34 35 36 36 36 36 33 31 29 27 25 22 18 15 12 10 8 7 7 7 6 7 7 7 6 5 5 4 4 4 4 4 4 4 4 4 3 3 3 3 3 3 3 3 3 3 3 3 3 3 3 3 3 3 3 3 3 3 3 3 3 3 4 4 4 4 4 5 5 5 6 6 7 7 7 7 7 7
33 32 32 33 35 38 40 38 36 36 37 36 35 35 34 33 31 27 25 21 17 14 11 9 8 7 7 7 7 7 7 6 5 5 4 4 4 4 4 4 4 4 3 3 3 3 3 3 3 3 3 2 2 2 2 2 2 2 3 2 3 3 3 3 2 3 3 3 3 3 3 3 3 3 3 4 4 4 5 5 6 6 5 5 5 6
34 33 33 34 35 38 41 41 39 37 37 37 34 33 32 31 30 27 24 20 16 13 10 8 7 7 6 7 7 7 7 6 5 5 4 5 5 4 5 4 4 4 4 3 3 3 3 3 3 2 2 2 2 2 2 2 2 2 2 2 2 2 2 2 2 2 2 2 2 2 2 3 2 3 3 3 3 4 4 4 4 4 4 4 4 4
35 36 37 36 36 38 42 45 44 41 39 37 35 32 28 27 26 24 21 18 15 12 9 7 7 7 6 7 7 7 6 5 4 4 4 4 4 4 4 4 4 4 4 4 3 3 3 3 3 2 2 2 2 2 2 2 2 2 2 2 2 2 2 2 2 2 2 2 2 2 2 2 2 2 3 3 3 3 3 3 3 4 3 3 3 3
37 39 40 42 41 40 41 44 45 43 41 38 35 32 29 25 23 21 18 16 14 11 9 7 6 7 7 7 7 6 5 4 4 4 4 4 4 4 4 4 5 4 4 4 4 4 4 3 3 3 3 3 2 2 2 2 2 2 2 2 2 2 2 2 2 2 2 2 2 2 2 2 2 2 2 3 3 3 3 3 3 3 3 3 3 3
40 40 41 44 46 43 41 41 42 41 40 39 38 35 32 29 25 22 18 16 14 11 8 7 6 6 6 6 6 5 4 4 4 4 4 4 4 4 4 4 4 4 4 4 4 4 4 4 4 3 3 3 3 3 3 2 2 2 2 2 2 2 2 2 3 3 2 2 2 2 2 2 2 2 3 3 3 3 2 3 2 2 2 2 2 2
43 40 40 44 47 47 44 43 43 42 41 42 42 39 37 33 28 23 20 17 14 11 8 7 6 6 6 6 6 5 4 4 4 5 4 4 4 4 4 4 4 4 3 4 3 3 3 3 3 3 3 3 3 3 3 2 2 2 2 2 2 2 2 2 2 2 3 2 2 2 2 2 2 3 3 2 3 3 2 2 2 2 2 2 2 2
48 43 42 45 49 52 51 48 47 44 44 45 46 44 41 37 31 24 21 18 15 11 8 6 7 6 6 7 6 4 4 4 4 4 4 4 4 3 3 3 3 4 3 3 3 3 3 3 3 3 3 3 3 2 2 2 2 2 2 2 2 2 2 2 2 2 2 2 2 2 2 2 3 3 3 3 3 2 3 3 2 2 2 2 2 2
51 45 44 47 51 54 55 54 52 48 48 48 47 44 40 38 35 27 21 18 15 11 8 7 6 7 6 6 6 4 3 4 4 4 4 3 4 3 3 3 3 3 3 3 3 3 3 3 3 3 3 3 3 2 2 2 2 2 2 2 2 2 2 2 2 2 2 2 3 3 3 3 3 3 3 3 3 3 3 3 3 3 3 3 3 3
56 48 45 46 48 53 57 57 55 52 52 51 48 42 38 36 35 30 23 18 16 13 9 7 7 6 6 6 6 5 3 4 4 4 4 4 4 4 4 4 3 3 3 3 3 3 2 3 3 3 3 3 3 3 3 2 3 2 2 2 2 2 2 2 2 3 3 3 3 3 3 3 3 3 3 3 3 3 3 4 4 3 3 3 3 3
61 51 47 45 45 51 56 56 54 53 51 50 48 44 40 38 36 34 27 19 18 15 9 7 7 6 6 6 5 4 3 3 4 4 4 4 4 4 4 4 3 3 3 3 3 3 3 3 3 3 3 3 3 3 3 2 3 3 2 3 2 2 3 2 3 3 3 3 3 3 3 3 3 3 3 3 3 3 3 4 4 3 4 4 3 3
65 54 50 48 45 49 53 53 52 50 47 47 47 46 43 40 38 38 32 23 19 16 11 7 6 6 6 5 5 4 4 3 4 4 4 4 4 3 3 3 3 3 3 3 3 3 2 2 3 3 3 3 3 3 3 3 3 3 3 3 3 3 3 2 2 2 2 2 2 3 2 3 3 3 3 3 3 3 4 3 3 4 4 3 3 3
70 57 52 50 47 49 53 53 52 50 48 48 48 47 45 41 38 37 34 27 19 17 14 9 6 6 5 5 5 4 4 3 3 4 4 4 4 4 4 3 3 3 3 3 3 2 3 2 2 2 2 2 3 2 3 3 3 3 3 3 3 3 3 3 3 3 3 3 3 3 3 3 3 3 3 3 3 4 3 3 4 3 3 3 3 3
77 61 55 51 47 50 56 58 57 54 53 52 50 49 47 43 39 36 34 30 22 18 16 11 7 6 6 6 6 5 4 4 4 4 4 4 4 4 4 3 3 3 3 3 3 2 3 2 2 2 2 2 3 2 3 2 3 3 3 3 3 3 3 3 3 3 3 3 3 3 3 3 3 3 3 3 3 3 3 3 3 3 3 3 2 2
87 68 59 55 51 56 63 65 64 59 54 52 50 50 48 45 42 39 37 35 27 18 15 12 8 6 6 6 6 5 5 4 4 4 4 4 4 3 4 4 4 4 3 3 3 3 3 3 3 2 2 3 2 2 3 2 3 3 2 3 3 3 3 3 3 3 3 3 3 3 3 3 3 3 3 3 2 2 3 2 2 2 2 2 2 2
96 75 61 54 52 56 62 63 61 58 52 49 48 49 49 47 43 41 38 36 31 22 14 11 9 7 6 6 6 6 5 4 4 4 4 4 4 3 3 4 4 3 3 3 3 3 3 2 3 2 2 3 2 2 3 2 3 3 3 3 3 3 3 3 3 3 3 3 3 3 3 2 2 2 2 2 2 2 2 2 2 2 2 2 2 2
101 84 65 54 49 49 50 49 48 49 49 48 47 48 49 47 43 40 36 33 33 27 17 12 10 8 6 6 6 6 5 5 4 3 4 3 3 3 3 3 3 3 3 3 3 3 3 2 2 2 2 2 2 2 2 2 3 3 3 3 3 3 3 3 3 3 3 3 2 2 2 2 2 2 2 2 2 2 2 2 2 2 2 2 2 2
105 93 72 58 54 50 48 46 44 45 47 47 47 47 48 47 44 42 37 32 32 30 23 16 12 9 7 5 6 6 5 4 4 3 4 4 3 4 3 3 3 3 3 3 3 3 3 2 2 2 2 2 2 2 2 2 2 2 3 2 2 2 2 2 2 2 2 2 2 2 2 2 2 2 2 2 2 2 2 2 2 2 2 2 2 2
105 101 82 65 61 58 55 55 52 49 50 49 46 45 46 47 46 44 40 34 29 29 27 21 15 11 9 6 5 5 5 4 4 3 3 4 4 3 3 3 3 3 3 2 3 2 2 2 2 2 2 2 2 2 2 2 2 2 2 2 2 2 2 2 2 2 2 2 2 2 2 2 2 2 2 2 2 2 2 2 2 2 2 2 2 2
102 102 90 74 68 64 61 62 58 52 52 52 49 45 44 46 47 45 43 38 32 28 28 25 19 13 10 8 5 5 5 4 4 4 3 4 4 3 3 3 3 3 3 2 3 2 2 2 2 2 3 2 3 2 2 2 2 2 2 2 2 2 2 2 2 2 2 2 2 2 2 2 2 2 2 2 2 2 2 2 3 2 2 2 2 2
92 96 92 81 75 70 66 65 60 52 51 54 52 48 46 45 47 46 44 42 38 33 31 29 25 19 13 9 6 5 5 5 4 4 4 3 4 4 3 3 3 3 3 3 3 2 2 2 2 2 3 2 3 2 2 3 2 2 2 2 2 2 2 2 2 2 2 2 2 2 2 2 2 2 2 2 2 2 3 3 3 3 3 2 2 2
80 86 86 82 80 76 70 68 63 53 48 51 53 53 50 47 47 46 44 43 42 38 34 32 29 25 18 12 8 6 5 6 5 4 4 4 4 4 4 3 4 4 3 3 3 2 2 2 2 2 2 2 3 2 2 3 2 2 2 2 2 2 2 2 2 2 2 2 2 2 2 2 2 2 2 2 2 2 3 3 3 3 3 2 2 2
69 76 79 77 77 77 72 68 68 61 50 47 51 55 53 47 46 48 46 43 42 39 35 32 30 26 22 16 12 7 5 6 6 5 4 4 4 4 4 4 4 4 4 3 3 2 2 2 2 2 2 2 2 2 2 2 2 3 3 3 3 2 2 2 2 2 2 2 2 2 2 2 2 2 2 2 2 3 3 3 3 3 3 3 3 3
61 67 73 72 71 73 71 65 67 66 55 47 48 52 51 46 45 50 50 45 42 39 35 33 31 28 25 20 14 10 6 5 5 5 4 4 4 4 4 4 4 4 4 3 3 3 2 3 3 3 3 3 2 3 3 2 3 3 3 3 3 3 3 3 3 3 3 3 3 2 2 3 2 2 2 2 2 2 3 3 3 3 3 3 3 3
55 60 67 68 65 67 68 64 64 64 58 51 47 47 50 49 47 49 50 47 44 42 39 35 33 32 30 24 16 11 7 5 5 5 4 4 4 4 4 4 4 4 4 4 3 3 3 3 3 3 3 3 3 3 3 3 3 3 3 3 3 3 3 3 3 3 3 3 3 3 3 3 3 3 3 3 3 3 3 3 3 3 3 3 3 3
53 56 61 64 61 59 61 62 60 62 62 58 51 48 52 60 60 55 52 49 45 44 44 40 37 36 34 29 21 14 9 6 5 5 5 4 4 4 4 4 4 4 4 4 3 3 3 3 3 3 3 3 3 3 3 3 3 3 3 3 3 3 3 3 3 3 3 3 3 3 3 3 3 3 3 3 3 3 3 3 3 3 3 3 4 3
55 55 58 61 60 54 54 54 54 61 68 67 60 54 55 64 70 63 55 51 47 45 45 44 41 37 34 31 26 19 13 8 6 5 5 5 4 4 4 4 5 4 4 4 4 3 3 3 3 3 3 3 4 3 3 4 4 4 4 3 3 3 3 3 3 3 3 3 3 3 3 3 3 3 2 3 3 3 3 3 3 3 3 3 4 4
58 57 57 59 59 54 50 51 55 62 69 72 70 62 54 58 66 64 57 53 50 47 45 44 42 38 35 33 30 25 18 12 7 5 5 5 5 4 4 4 4 4 4 4 4 4 4 3 3 3 3 4 4 4 4 4 4 4 4 4 4 4 3 3 3 3 3 3 3 3 3 2 3 3 2 3 3 3 3 3 3 3 3 3 3 3
62 59 58 59 61 57 50 49 54 60 65 72 75 69 56 55 63 67 62 56 51 47 44 43 41 38 36 35 33 30 25 18 12 7 5 5 5 4 4 4 4 4 4 4 4 4 4 4 3 3 3 4 4 4 4 4 4 4 4 4 4 4 4 4 3 3 3 3 3 3 3 3 3 2 3 3 3 3 3 3 3 3 3 3 3 3
68 64 61 61 62 61 55 47 47 54 60 67 74 72 61 57 64 72 71 61 52 47 43 42 41 39 37 36 34 32 29 24 18 11 6 5 6 5 5 4 4 4 4 4 4 4 4 4 3 3 4 4 4 4 4 4 4 4 4 4 4 4 4 4 4 4 4 3 4 3 3 3 3 3 3 3 2 3 3 3 3 3 3 3 3 3
72 68 64 62 60 63 63 54 47 51 58 64 71 70 63 59 63 71 72 64 53 47 43 42 43 42 40 38 36 33 30 27 22 16 9 6 5 6 5 4 4 4 4 5 5 5 5 4 4 3 3 4 4 4 4 4 4 4 4 4 4 4 4 4 4 4 4 4 4 4 3 3 3 3 3 3 3 3 3 3 3 3 3 3 3 3
73 71 66 62 60 62 65 60 52 52 56 62 67 66 62 60 61 64 65 61 54 49 45 43 45 46 44 42 40 37 33 29 25 20 14 8 5 5 6 5 4 4 4 4 5 5 5 5 5 4 3 3 4 4 4 4 4 4 4 4 4 4 4 4 4 4 4 4 4 4 4 3 4 3 3 3 3 3 3 3 3 3 3 3 3 3
67 69 67 64 60 60 62 61 55 53 56 60 65 63 59 57 58 60 63 61 56 52 49 46 46 47 48 46 45 43 39 35 30 25 19 12 7 5 5 5 5 4 4 4 4 5 5 5 5 5 4 4 4 4 4 4 4 4 4 4 4 4 4 4 4 4 4 4 3 4 3 3 3 3 3 4 3 3 4 3 3 3 3 3 3 4
59 62 65 64 60 58 61 60 56 54 56 60 65 64 57 52 53 58 64 65 62 57 54 50 48 48 49 49 48 47 45 41 37 31 25 18 11 6 5 6 5 5 4 4 4 4 5 5 5 5 5 4 4 4 4 5 5 4 4 4 4 4 4 4 4 4 4 4 3 3 3 3 3 3 3 3 3 3 3 3 3 4 4 4 4 4
58 57 61 63 60 58 60 60 58 57 59 61 64 63 56 51 52 58 65 70 68 62 57 54 51 49 50 50 50 50 49 46 42 37 30 23 15 9 6 5 5 6 5 4 4 4 5 5 5 5 5 5 4 4 4 5 5 4 5 5 4 4 4 4 4 4 4 4 4 3 4 4 3 3 3 3 3 3 3 3 4 3 3 4 4 4
62 58 59 61 62 60 61 64 65 63 62 64 65 64 58 53 55 62 68 72 70 65 59 56 54 51 50 50 50 51 50 48 45 41 35 28 21 14 9 6 5 6 6 5 4 4 4 5 5 5 6 5 5 4 4 4 5 5 5 5 5 5 5 4 4 4 4 4 4 4 4 4 3 3 3 3 3 3 3 4 4 4 4 4 4 4
67 64 60 61 64 65 65 67 69 67 65 66 68 66 61 58 59 64 70 73 70 65 59 56 55 53 50 49 50 50 50 50 48 44 39 34 27 20 13 8 6 5 6 6 5 4 4 5 5 5 6 6 5 5 4 4 4 5 5 5 5 5 5 5 4 4 4 4 4 4 4 4 4 4 3 3 4 4 4 4 4 4 4 4 4 4
68 65 62 60 62 65 67 70 70 68 66 67 69 68 64 61 60 63 71 74 70 64 58 55 55 54 50 48 49 50 50 50 50 48 44 39 34 27 19 12 7 5 6 6 6 5 4 4 4 5 5 5 6 5 5 4 4 5 5 5 5 5 5 5 5 4 4 4 4 4 4 4 4 4 4 4 4 4 4 4 4 4 4 4 4 4
66 63 60 58 57 59 64 69 71 69 66 64 66 67 65 61 60 62 69 74 71 63 57 54 53 53 52 49 48 49 50 50 50 50 49 45 40 34 27 18 11 7 6 6 6 6 5 4 4 5 5 5 6 6 6 5 5 5 5 5 6 6 5 5 5 4 4 4 4 4 4 4 4 4 4 4 4 4 4 4 4 5 5 4 5 4
65 60 57 55 53 52 56 63 67 68 66 63 63 66 65 62 60 61 65 70 71 65 58 53 51 53 52 49 47 48 49 49 49 50 51 50 47 41 33 26 17 10 6 6 6 6 6 5 5 4 4 5 5 6 6 6 5 5 5 5 6 6 6 6 6 5 5 4 4 4 4 4 4 4 4 4 4 4 5 5 5 5 4 5 5 5
65 59 55 53 51 48 48 53 59 62 64 62 61 64 64 61 60 60 63 66 68 64 58 53 51 51 52 51 48 47 48 49 49 50 51 52 52 48 40 33 24 15 9 6 5 6 7 6 5 5 4 5 5 5 6 6 6 6 5 5 5 6 6 6 6 6 5 5 5 5 4 4 4 4 4 4 4 5 5 5 5 5 5 5 5 5
65 60 56 53 51 48 46 47 50 54 58 58 58 61 63 61 59 60 62 63 63 61 58 54 52 51 52 53 50 47 48 49 49 49 50 51 52 52 47 40 32 23 14 8 6 6 6 7 6 6 5 5 5 5 6 6 6 6 6 5 5 5 6 6 6 6 6 5 5 5 5 5 5 4 5 5 4 5 5 5 5 5 5 5 5 5
65 61 57 54 52 49 46 45 45 46 49 52 55 58 60 60 59 59 60 60 59 58 56 54 52 51 53 54 52 48 48 50 50 49 50 50 51 52 51 47 40 31 22 13 7 6 6 6 7 6 6 5 5 5 5 6 6 7 7 6 6 5 6 6 7 7 6 6 5 5 5 5 5 5 5 5 5 5 5 5 5 5 5 6 6 5
Wind_Speed
62 64 65 67 68 69 72 74 76 79 80 82 84 85 87 87 88 90 90 90 90 87 84 81 79 77 77 78 76 75 75 76 76 76 74 73 70 69 68 68 69 70 72 73 75 76 79 81 84 85 87 89 91 93 95 96 98 99 100 101 102 104 105 106 107 109 110 110 110 109 110 110 110 111 112 113 115 116 118 119 120 121 123 123 124 124
65 67 68 69 71 72 74 77 80 82 84 85 86 88 89 90 89 90 92 91 91 89 86 83 80 78 78 78 75 73 73 74 74 74 73 72 71 69 68 67 67 68 69 70 71 73 76 78 80 81 83 85 87 88 90 92 95 96 98 99 100 101 103 104 105 106 106 107 106 106 107 107 107 108 108 109 110 111 112 113 115 116 118 120 121 122
68 69 70 72 73 75 77 80 82 85 88 88 89 90 91 92 91 89 90 91 92 91 88 85 82 79 79 78 74 72 72 72 71 71 71 70 70 69 68 68 68 68 68 69 70 71 73 74 76 78 80 81 82 84 86 88 90 91 93 94 96 97 99 100 100 101 101 102 102 102 103 103 103 103 104 104 104 105 107 107 109 110 112 115 116 118
70 71 72 74 76 79 81 83 85 87 90 92 92 93 93 95 95 93 90 90 91 93 92 88 82 78 78 77 74 72 71 70 70 69 69 70 69 69 69 69 69 68 68 69 69 70 71 72 73 75 77 78 78 81 83 84 86 87 88 90 92 93 95 95 96 96 97 97 98 98 98 98 99 99 99 100 100 100 101 102 104 105 107 108 109 111
72 73 75 78 80 82 84 85 87 89 91 93 94 96 96 96 97 97 95 92 91 93 94 90 82 78 79 78 74 72 70 69 69 69 69 69 69 70 70 70 70 70 70 70 70 70 70 70 71 73 74 75 76 78 80 82 83 84 85 88 89 90 91 92 92 93 93 94 94 95 95 95 95 95 95 96 97 97 98 100 101 103 104 104 105 105
74 76 79 82 84 85 87 88 90 91 92 94 96 97 98 99 99 99 99 96 93 92 94 91 84 79 79 78 74 71 70 69 68 67 68 68 68 69 69 70 70 70 70 70 70 70 70 70 71 72 72 73 74 76 78 79 80 81 84 86 87 88 89 90 90 90 90 91 91 92 91 91 92 92 92 93 94 94 96 98 100 101 102 103 103 104
77 80 82 85 88 89 90 91 93 94 95 96 97 99 100 101 102 101 100 98 96 95 95 93 87 81 80 78 74 71 70 69 68 66 67 67 67 67 67 68 69 69 70 70 70 70 69 69 70 71 72 72 73 74 76 77 78 79 81 83 84 85 87 87 88 88 89 89 89 89 89 89 89 89 89 90 91 91 93 96 98 100 101 102 102 103
80 83 86 88 90 92 93 94 96 97 97 98 100 101 103 103 104 103 100 98 97 95 92 90 85 80 80 78 73 72 71 69 69 67 67 67 66 66 66 66 67 68 68 69 69 69 69 69 69 70 70 71 72 73 74 75 76 77 78 79 81 82 84 85 86 86 86 87 86 87 87 87 87 87 87 88 89 90 91 94 97 99 100 100 101 101
84 86 88 90 92 94 96 98 99 100 101 102 102 103 104 104 105 103 99 96 96 95 90 87 83 77 77 78 74 71 71 70 69 68 67 67 66 65 65 65 66 67 68 68 69 69 69 69 69 69 69 70 71 71 72 73 73 74 74 76 77 79 81 81 82 82 83 83 83 83 84 84 84 84 84 84 86 88 90 92 95 98 99 99 99 101
86 88 89 91 93 96 99 101 103 104 104 105 105 104 105 105 105 104 100 97 95 94 91 86 83 77 74 76 74 71 70 70 69 68 68 67 66 66 66 66 66 66 67 67 68 68 68 69 69 69 69 69 69 69 69 69 70 70 71 72 74 75 77 77 77 78 78 79 79 79 80 80 80 80 80 80 82 84 87 90 92 95 96 96 97 99
87 90 91 93 95 97 100 103 106 108 108 108 108 106 105 105 106 104 101 97 95 95 91 87 84 80 76 74 73 72 70 70 69 68 67 66 66 66 66 67 67 67 67 67 67 67 67 68 68 68 68 68 68 67 67 66 66 67 68 69 70 72 74 73 73 74 74 75 75 74 75 75 75 76 75 76 78 81 84 87 90 91 93 93 94 96
88 91 92 94 97 98 100 103 106 108 109 111 111 112 110 108 108 107 102 99 98 97 94 89 84 82 78 75 73 72 71 70 70 68 68 66 65 66 66 67 68 68 68 67 67 67 67 67 67 66 66 65 65 64 63 63 63 64 65 66 67 70 70 69 68 69 70 70 71 70 69 69 70 71 72 72 74 78 82 85 86 88 89 90 92 93
89 92 94 96 99 102 103 104 106 108 111 113 115 118 119 117 116 114 109 105 102 101 97 92 86 82 79 77 74 73 72 71 70 69 68 67 65 65 65 65 65 65 65 65 65 65 66 65 65 64 63 63 62 62 61 60 61 61 62 63 64 66 66 65 65 66 67 68 68 67 65 64 65 67 68 69 73 77 80 81 83 84 86 87 89 89
91 94 96 98 101 105 107 109 110 112 115 118 120 123 126 126 125 123 119 113 108 106 100 94 89 84 80 79 76 75 73 71 70 68 66 65 62 61 61 61 61 61 61 61 61 61 62 62 61 60 60 60 60 59 59 59 59 59 59 60 61 61 61 61 62 63 65 66 67 65 62 61 62 64 66 68 71 75 76 77 79 80 81 83 84 85
94 97 99 101 104 107 110 112 114 116 118 120 122 124 127 129 129 127 124 119 113 110 103 94 89 86 83 82 80 77 75 71 68 66 64 62 60 58 58 59 59 59 58 58 57 57 57 57 57 56 56 57 57 57 56 56 57 57 57 58 57 57 58 59 59 60 62 63 64 62 60 59 61 63 65 67 69 71 72 74 75 76 77 78 80 81
95 100 102 104 105 107 110 114 115 117 119 120 121 123 125 129 130 128 124 119 113 109 105 97 91 88 85 83 81 76 72 69 66 65 63 62 61 60 59 59 58 58 56 55 54 54 54 54 54 53 53 53 55 55 55 55 55 55 54 54 54 55 56 56 56 57 58 59 59 58 57 58 59 61 63 65 66 68 69 71 72 73 74 75 77 78
93 99 101 103 105 107 110 114 117 118 120 120 121 122 124 127 131 130 126 120 114 109 108 104 97 91 87 84 81 76 71 69 68 67 66 65 63 63 62 61 59 57 55 53 51 50 49 49 50 50 50 50 51 52 52 52 52 51 51 50 51 51 52 53 53 53 53 53 54 55 56 56 58 59 61 62 64 65 67 69 70 71 72 73 75 76
91 96 100 102 104 106 109 112 116 118 119 120 122 124 125 127 130 133 131 127 120 113 109 107 103 96 91 87 84 80 75 73 71 70 68 66 65 65 64 63 61 59 57 54 52 50 49 48 48 48 48 47 47 48 48 48 48 47 46 46 46 47 47 48 48 48 49 50 51 53 55 55 56 57 59 60 62 63 65 67 69 70 71 73 75 75
89 93 99 102 105 106 108 109 112 115 118 120 122 124 126 128 130 133 135 133 129 121 112 106 103 98 93 90 87 85 81 77 74 72 69 67 66 64 63 62 60 59 58 56 54 53 52 51 51 50 49 49 48 47 46 46 45 44 44 43 43 43 44 44 45 46 47 49 51 53 55 54 54 56 57 58 60 63 64 66 68 69 70 72 74 74
89 92 97 102 105 106 107 109 111 115 117 119 121 123 125 128 129 131 134 134 132 126 118 109 104 100 96 94 92 90 87 82 77 74 71 68 66 64 61 59 56 53 51 50 49 48 48 48 48 48 48 48 48 48 47 46 44 43 43 42 41 41 42 43 44 45 46 47 49 51 52 53 53 54 55 57 59 61 62 64 66 67 68 70 71 71
88 90 95 99 103 105 107 110 113 116 117 119 122 125 127 129 130 130 130 131 130 128 125 118 111 106 102 99 97 95 91 86 81 78 74 70 67 65 61 56 52 48 46 45 43 43 44 43 44 44 45 45 46 46 46 45 44 43 42 41 40 40 40 41 42 42 43 44 45 47 48 49 50 51 52 55 57 58 60 61 63 64 65 66 67 67
87 89 93 98 103 104 105 108 111 114 117 120 123 127 129 131 133 133 131 131 131 128 126 123 119 113 108 104 101 98 95 90 85 80 76 72 69 66 63 59 55 51 48 46 44 43 43 42 43 43 44 44 44 45 45 44 44 42 41 41 40 39 38 39 40 40 41 42 42 43 44 46 47 48 50 53 54 55 57 58 59 60 61 63 64 64
86 88 90 95 101 103 103 105 108 113 117 121 124 127 130 132 134 136 135 134 133 129 123 121 120 117 112 108 104 101 98 93 87 82 79 75 72 69 66 63 60 57 53 49 47 45 44 44 43 42 43 43 43 43 43 43 43 42 41 40 39 38 37 38 39 39 39 40 41 41 42 43 45 46 48 49 50 51 53 54 56 57 58 59 60 60
88 89 89 92 96 99 101 104 109 115 120 123 125 127 129 131 133 134 135 134 134 131 125 121 120 118 114 110 106 103 99 95 89 85 81 78 75 73 69 64 60 57 55 53 51 49 47 45 44 43 42 42 42 42 42 42 41 41 40 39 38 37 37 37 38 38 39 39 39 40 40 41 41 43 44 44 46 47 48 50 51 53 55 56 57 56
89 92 93 95 98 101 103 107 112 118 123 125 127 128 129 130 131 132 132 132 132 134 131 125 122 120 116 111 107 103 100 97 93 89 85 81 77 74 70 65 60 57 56 55 54 51 49 47 45 43 42 41 40 40 39 39 39 39 38 38 37 37 36 36 36 36 36 36 36 36 36 37 38 39 40 41 42 44 45 47 48 50 53 54 54 53
89 93 96 99 105 109 111 115 118 121 124 126 127 128 129 130 132 133 133 133 133 135 135 131 126 123 119 114 107 103 100 97 94 90 87 84 80 76 73 68 63 59 56 55 53 52 50 49 47 45 42 40 39 38 38 37 37 37 37 37 36 36 35 34 34 34 33 33 33 33 33 34 36 37 38 39 40 41 42 44 46 48 49 51 52 51
87 92 95 99 104 109 113 116 119 121 124 126 127 128 129 131 133 134 134 136 136 136 137 136 132 128 124 118 110 104 100 97 94 91 87 85 82 78 75 71 65 61 58 55 54 52 51 49 48 46 44 41 39 38 37 36 35 35 34 34 34 33 32 31 31 31 31 31 31 30 31 31 33 34 35 36 37 38 39 41 44 45 46 48 50 50
86 90 93 96 100 106 110 113 116 119 122 126 128 129 130 131 132 134 135 138 139 139 139 138 135 131 128 123 116 109 103 99 97 93 89 87 84 81 77 74 70 66 63 60 58 56 54 51 48 46 44 42 40 38 37 35 34 33 32 31 31 30 30 29 29 28 28 28 28 28 28 29 30 31 32 34 35 35 36 38 42 44 45 46 48 48
86 88 91 94 97 102 107 110 113 117 120 124 127 130 131 131 133 135 137 139 141 142 141 140 138 135 131 126 120 115 109 105 101 98 94 91 89 85 81 78 75 71 69 67 64 61 58 55 51 47 44 42 40 39 37 36 34 32 31 30 29 29 28 28 27 27 26 26 26 26 26 27 28 29 30 31 32 32 33 35 40 43 44 45 46 46
86 88 90 93 95 99 103 107 111 115 118 121 124 128 131 132 134 137 139 141 142 142 142 141 140 137 133 129 125 120 114 110 106 102 98 93 89 86 83 81 78 75 72 69 66 64 61 58 54 50 46 43 41 39 37 35 34 32 31 30 29 28 27 26 26 25 24 24 24 24 24 25 26 27 28 28 29 29 31 34 38 41 42 42 42 43
86 87 89 92 94 97 101 104 108 113 117 119 121 125 129 132 136 140 142 142 142 142 142 141 139 137 135 132 129 124 118 112 107 104 99 94 89 86 83 80 78 75 72 69 67 65 63 60 57 54 50 47 44 41 39 36 34 32 31 30 29 28 27 27 26 25 25 24 24 23 24 24 25 25 26 26 26 27 28 31 35 38 38 38 39 40
86 87 89 91 93 96 100 104 107 111 115 118 120 124 129 133 137 141 143 143 143 143 143 142 141 140 139 135 131 127 121 114 108 104 100 96 91 88 85 81 77 75 72 70 69 67 65 63 60 57 54 51 48 46 43 40 37 34 32 30 29 27 26 26 25 25 24 24 24 23 23 23 24 24 24 24 24 24 26 29 31 33 33 34 35 36
87 88 89 91 94 96 100 104 108 110 114 119 122 126 131 135 138 140 142 142 142 142 143 143 143 144 143 140 135 130 125 119 112 105 101 98 94 91 87 83 79 76 73 71 70 69 67 64 61 58 55 52 50 48 45 43 40 37 34 32 30 28 26 24 23 22 21 21 21 20 20 21 21 22 23 23 22 22 24 26 27 28 28 29 31 32
88 90 92 93 96 98 101 104 107 111 116 121 125 128 131 134 137 140 142 143 143 141 140 141 142 143 145 144 141 135 130 124 118 110 105 101 98 93 89 86 82 78 76 73 71 70 69 66 62 59 55 52 50 48 46 44 42 40 37 35 32 30 28 27 25 23 21 20 19 18 17 17 17 18 19 19 20 20 21 23 25 25 25 26 26 27
89 91 93 95 97 100 103 105 108 113 118 122 125 128 130 132 135 139 143 146 145 141 139 139 141 141 142 143 143 139 134 128 123 116 110 106 101 96 92 89 85 80 77 75 72 71 69 67 64 60 57 54 52 51 48 46 44 42 40 37 34 31 30 28 27 25 23 22 20 18 17 17 16 16 16 16 17 17 19 20 22 23 23 24 24 24
90 92 94 96 98 100 103 107 111 114 116 118 122 126 129 132 136 140 144 148 148 144 141 140 140 140 139 140 140 140 137 132 127 121 115 109 104 100 95 91 87 82 78 76 74 72 70 67 64 61 57 55 53 51 49 47 46 44 41 39 37 34 32 30 28 26 25 23 22 20 19 18 18 17 16 16 15 15 16 17 19 20 21 22 22 22
91 94 96 97 99 102 104 106 109 111 114 117 121 125 130 134 138 142 146 148 149 146 143 141 140 139 138 138 138 139 138 135 130 125 118 111 106 103 98 93 88 85 82 78 76 73 71 68 66 63 59 56 53 51 49 47 45 44 43 41 39 37 35 33 31 29 27 25 24 22 21 19 18 17 17 16 15 15 15 15 16 17 18 19 20 20
93 95 97 99 101 103 105 107 109 111 115 118 122 126 130 133 136 139 143 146 147 146 144 141 141 140 140 139 138 138 137 136 132 127 121 114 109 105 100 95 90 88 85 82 78 76 73 71 68 65 62 59 56 54 51 48 46 45 43 41 39 37 35 34 33 31 29 27 25 23 21 19 18 16 16 15 15 14 14 14 14 14 15 16 17 18
93 96 98 100 102 105 107 110 112 114 117 119 122 125 129 132 134 135 137 141 144 146 145 144 143 142 142 142 141 140 138 137 134 130 125 119 112 106 101 98 93 90 87 84 81 79 77 74 71 68 66 63 59 57 54 51 49 47 45 42 40 38 36 34 33 32 30 28 25 23 21 19 18 16 15 14 14 13 13 13 13 13 14 14 15 16
93 96 98 100 103 106 108 110 113 116 118 120 122 123 127 131 134 135 136 139 144 147 147 147 146 144 143 143 144 143 142 140 138 134 129 124 118 111 105 101 97 93 89 87 84 81 79 77 74 72 69 66 62 59 56 54 52 50 47 45 42 39 37 35 34 32 30 28 26 24 23 21 19 17 16 14 14 13 13 13 13 13 13 13 14 14
91 95 97 100 103 106 108 109 112 115 117 119 121 123 126 129 132 135 138 141 144 147 149 148 147 146 145 145 145 145 145 144 142 139 135 129 123 117 111 106 101 96 92 89 86 83 80 78 76 73 71 67 64 61 58 56 54 52 50 47 44 41 38 36 34 32 30 28 26 25 24 23 21 19 17 15 15 14 13 13 13 12 12 12 12 13
90 93 97 99 102 105 107 108 109 111 114 117 119 122 124 126 130 134 138 141 143 146 148 148 148 147 146 146 146 146 147 146 145 143 139 134 128 122 116 110 105 100 96 91 88 86 83 80 77 75 72 69 65 62 59 57 54 52 50 48 46 43 40 38 36 33 31 29 28 26 25 24 22 20 18 17 16 15 15 15 14 14 13 13 12 12
90 93 96 99 101 104 106 109 110 113 115 117 119 120 123 126 129 132 135 138 141 144 146 148 148 148 147 146 146 146 147 146 146 144 142 137 132 126 120 114 108 103 99 95 91 87 85 81 78 76 74 71 67 64 60 57 54 52 50 48 46 44 42 40 38 36 34 32 30 29 27 25 22 21 19 18 17 16 16 16 15 15 14 14 14 13
91 93 96 100 103 105 108 111 114 116 117 119 120 121 124 127 129 131 133 136 138 141 144 146 147 148 148 147 146 146 146 146 145 144 143 140 135 129 124 117 112 106 102 98 94 90 86 83 80 77 75 72 69 66 62 59 56 53 51 49 47 45 43 41 39 37 36 34 32 31 29 26 24 22 21 19 18 17 17 16 15 15 15 14 14 14
91 93 96 99 103 106 108 110 112 114 115 117 119 121 123 126 128 130 132 135 137 139 142 145 147 148 148 148 147 146 145 145 145 145 144 142 139 134 127 122 116 110 105 101 97 92 88 84 81 78 76 74 72 69 65 62 59 56 53 50 48 46 44 41 39 37 35 34 33 31 30 28 26 24 23 21 20 19 17 17 16 15 15 14 14 14
90 93 95 98 100 104 107 109 111 113 114 116 118 120 122 124 126 128 131 134 136 138 141 144 146 147 148 148 147 146 145 145 145 145 145 144 142 138 132 126 120 115 109 104 100 96 91 86 83 80 77 75 73 72 69 65 62 59 56 53 50 48 45 42 39 37 35 33 31 30 29 27 26 25 24 23 21 20 19 18 17 16 15 15 14 13
88 91 94 97 99 102 105 108 111 113 115 116 117 119 121 123 125 127 130 132 135 138 140 142 145 147 147 147 147 147 146 145 145 145 146 145 144 142 137 131 125 119 114 108 103 99 95 90 86 83 80 78 75 74 72 68 65 61 58 54 51 49 46 43 40 38 35 33 31 29 27 26 25 24 24 23 21 21 19 18 17 16 15 14 14 13
87 90 93 96 99 101 103 105 108 111 114 115 116 117 119 122 124 126 129 131 134 137 139 141 143 145 146 147 147 147 146 146 145 145 145 146 146 144 141 136 130 124 118 112 107 102 99 95 90 86 83 80 78 75 73 71 68 64 60 56 53 50 47 45 42 39 36 33 31 29 27 26 25 24 23 22 22 21 20 19 18 17 16 15 14 14
86 89 92 95 98 100 102 104 105 108 111 114 116 117 118 121 123 125 127 130 132 135 138 140 141 143 145 146 147 147 146 146 146 145 145 146 146 145 143 140 135 129 122 116 110 105 101 97 94 89 86 83 80 77 74 72 70 67 64 60 56 52 48 46 44 41 38 35 33 30 28 27 26 25 24 23 22 21 21 20 19 18 17 16 15 14
86 88 91 94 97 99 101 103 105 107 109 112 115 117 118 120 122 125 127 129 131 133 135 138 140 142 144 146 147 146 146 146 146 146 146 146 146 145 144 142 138 133 127 121 115 109 104 99 96 92 88 85 82 79 76 73 71 69 67 63 60 56 52 48 45 43 40 37 34 32 30 28 27 26 24 23 22 21 21 20 20 19 18 17 16 15
85 88 91 94 96 99 101 103 105 107 109 111 114 116 118 119 121 123 126 127 129 131 133 136 138 140 143 145 146 146 146 146 147 147 147 147 146 146 145 144 141 137 132 126 120 114 108 102 98 95 92 88 84 81 78 75 72 70 68 66 63 59 55 51 48 46 43 41 38 35 32 30 29 27 26 25 24 22 21 21 20 20 19 18 17 17
Wind_Direction
353 352 352 352 350 349 349 348 347 347 347 347 345 343 342 342 340 338 337 336 334 334 333 331 330 327 321 315 314 313 310 308 306 304 303 300 297 294 291 288 286 283 281 279 277 275 273 271 270 269 268 267 267 266 266 267 267 267 266 266 265 264 263 263 262 261 261 261 260 260 259 259 258 257 257 256 256 256 255 255 254 254 254 254 253 252
355 354 354 353 352 352 352 352 351 349 349 349 347 345 343 343 342 340 339 338 335 334 333 332 332 329 322 318 317 315 311 309 307 306 304 302 300 298 295 292 289 286 283 281 279 277 275 273 272 271 270 268 267 267 266 265 265 265 265 265 265 264 264 263 263 262 262 262 262 262 261 261 260 259 259 258 257 257 256 256 255 255 255 254 254 253
358 357 356 356 355 355 355 355 354 352 351 350 349 347 345 344 344 342 341 339 336 335 334 334 334 331 324 321 319 316 313 311 309 307 305 304 302 300 298 295 292 289 286 284 281 279 276 275 273 272 271 270 269 268 267 266 265 265 265 265 264 264 264 263 263 263 263 262 262 262 262 261 261 261 260 259 259 258 258 257 257 256 255 255 254 254
0 359 358 358 358 358 358 357 356 354 352 351 350 348 347 345 344 344 343 342 339 336 335 335 336 332 326 322 320 318 317 314 312 310 308 306 305 302 300 298 296 293 290 287 284 281 279 277 275 273 272 271 270 269 268 267 267 266 265 265 264 263 263 263 262 262 262 262 261 261 260 260 260 260 260 259 259 258 258 258 257 256 256 255 254 254
2 360 359 360 360 359 359 358 357 357 355 352 350 349 349 348 346 345 344 344 341 337 335 336 337 334 327 323 322 322 320 316 314 312 310 308 306 304 302 300 298 296 293 290 288 285 283 280 277 275 273 272 270 269 268 268 267 266 266 265 265 264 264 263 263 262 262 261 261 261 260 260 259 259 258 258 258 258 257 257 256 256 255 255 254 253
2 1 2 2 1 0 360 359 358 358 357 354 352 351 350 350 349 348 346 344 343 339 337 337 339 336 329 325 326 325 321 318 316 314 312 309 307 305 303 301 299 297 294 292 290 288 285 283 280 278 276 274 272 270 269 268 267 266 266 265 265 265 265 264 264 263 262 262 261 261 260 260 259 259 258 258 257 257 257 257 256 256 255 254 253 253
4 3 3 3 3 1 0 359 359 359 358 355 354 353 352 352 351 350 347 345 343 341 340 339 340 337 330 327 329 327 323 321 319 317 314 311 309 307 304 302 300 297 295 293 291 289 286 284 282 280 278 277 274 273 271 270 268 267 266 266 266 265 265 265 264 264 263 262 261 261 260 260 259 258 258 258 257 256 256 256 256 255 254 254 253 252
5 5 4 4 4 2 1 360 360 360 358 357 356 355 354 354 353 352 349 347 344 342 342 340 340 338 332 330 332 329 326 324 322 320 317 314 312 309 306 303 301 298 295 293 292 290 288 286 284 282 280 279 277 275 274 272 271 269 268 268 267 267 266 266 265 264 264 263 262 262 261 260 259 258 257 257 257 256 255 254 254 254 254 253 253 252
6 7 5 5 5 3 1 0 360 360 359 358 357 356 356 355 355 354 351 349 345 343 344 342 341 340 335 332 334 332 329 327 324 322 319 317 314 311 308 305 302 299 297 295 294 292 291 289 287 285 283 281 280 278 277 276 275 273 272 271 269 268 268 267 266 266 265 264 264 263 263 262 261 260 258 257 257 257 256 255 255 254 254 253 253 252
6 7 6 5 5 4 2 1 0 0 359 358 358 357 357 356 356 355 353 351 348 345 346 345 343 342 339 336 336 334 332 329 326 324 321 319 317 314 310 307 305 302 300 298 297 295 294 292 290 289 287 285 284 282 281 279 278 276 274 273 272 271 269 268 267 266 266 265 264 263 263 262 262 261 260 259 258 258 257 256 256 255 255 254 253 252
7 6 6 5 5 5 4 2 0 0 359 358 357 357 358 358 358 357 356 353 350 347 348 348 346 344 342 340 338 336 334 331 328 326 323 321 319 316 313 310 308 306 304 302 301 299 296 294 293 292 291 289 288 286 284 282 280 278 277 275 273 272 270 269 268 267 267 266 266 264 264 263 262 262 261 260 258 258 257 256 255 255 255 254 253 252
7 6 7 6 5 5 5 3 1 0 359 358 357 356 357 359 359 359 358 356 352 350 350 351 350 347 344 343 341 338 336 334 330 328 326 324 321 318 316 313 311 309 308 306 304 301 299 297 296 295 293 292 290 288 286 284 281 279 277 276 274 273 272 272 272 271 270 269 267 266 264 263 262 262 261 260 258 256 255 254 254 254 255 254 254 253
8 7 6 6 5 4 5 4 2 1 359 358 358 357 357 359 0 360 360 359 355 353 353 353 352 350 347 345 343 341 339 336 333 331 329 327 324 321 317 315 312 311 309 307 305 303 301 299 298 297 295 293 291 290 288 286 283 280 278 276 274 274 274 275 274 273 272 271 269 268 265 263 262 261 260 259 257 256 255 254 254 254 254 254 254 253
8 8 7 7 5 4 4 4 3 2 1 359 359 358 357 358 360 0 0 0 358 355 355 355 353 352 349 347 346 344 342 339 336 334 331 328 325 322 318 316 313 312 310 308 306 304 302 301 299 298 296 293 292 290 288 286 284 282 280 278 276 276 275 274 273 272 271 270 270 269 268 266 264 262 260 258 257 257 257 256 256 255 255 255 254 254
6 8 8 7 6 4 3 3 3 2 2 1 0 360 358 358 359 0 0 1 360 357 355 356 356 353 351 349 348 347 345 342 338 335 332 330 328 325 322 320 318 316 313 311 308 306 303 302 300 298 296 294 291 289 287 285 283 281 280 279 279 278 276 275 273 271 270 270 270 271 270 267 265 263 262 260 259 259 259 258 258 257 256 256 255 254
5 8 8 7 6 5 4 3 3 3 2 2 1 1 360 358 358 0 1 1 1 358 355 357 358 356 354 352 350 349 347 343 340 338 336 335 333 331 328 325 322 320 317 314 312 310 307 305 302 300 297 294 292 291 288 286 284 283 282 281 280 278 277 276 275 273 273 273 273 273 271 267 265 263 262 261 260 260 260 259 259 258 258 257 256 255
6 7 8 7 6 5 4 4 3 3 3 2 2 1 1 360 358 359 0 1 2 2 358 357 359 358 356 354 352 351 349 347 345 344 342 341 338 336 333 330 327 324 322 319 316 313 310 307 304 301 299 296 294 293 291 289 288 287 285 284 282 281 280 279 278 277 276 276 274 272 269 266 264 263 261 261 260 259 259 259 259 259 258 258 258 257
8 7 8 8 6 6 5 5 4 3 3 3 2 2 1 1 360 359 360 1 2 5 3 359 359 359 357 356 355 354 354 352 351 349 346 344 342 340 337 334 332 330 327 325 323 319 316 312 309 307 304 301 298 296 295 294 293 291 289 286 284 282 281 280 279 278 276 274 271 268 266 264 262 261 261 260 260 259 258 258 258 258 258 258 258 258
10 8 8 8 7 6 5 5 4 3 4 4 3 2 2 2 2 1 360 0 2 4 5 2 0 359 358 357 357 357 357 356 354 351 349 347 345 343 340 338 336 334 332 330 328 325 322 320 318 315 312 309 306 304 301 299 297 294 292 289 286 283 281 278 276 273 270 268 267 265 265 264 262 261 260 259 259 259 258 258 258 258 258 258 259 259
10 9 8 8 8 7 6 5 4 3 3 4 3 3 3 3 3 3 2 1 1 3 4 4 2 1 360 359 360 360 359 357 356 354 352 350 348 345 343 341 338 335 332 330 327 324 322 320 318 316 314 312 310 308 305 303 300 297 294 291 288 285 282 279 276 273 271 269 268 267 267 266 265 263 262 261 259 259 258 258 258 257 257 258 258 259
11 10 9 8 8 7 6 6 5 3 3 4 4 4 4 3 3 4 4 2 2 3 4 4 4 3 2 2 2 1 360 358 357 356 354 352 351 349 346 344 342 339 336 333 329 326 323 321 318 316 314 312 311 309 307 305 303 300 298 295 292 289 286 283 281 279 276 274 272 271 270 269 267 266 264 262 260 259 259 258 258 258 258 258 258 258
11 10 9 9 8 8 8 7 6 5 5 6 6 6 5 4 3 4 4 4 3 4 5 5 5 4 4 3 3 2 1 359 358 356 355 354 353 352 350 349 347 346 343 340 336 332 329 326 323 320 317 315 312 310 307 306 304 302 300 297 295 293 289 286 284 281 278 276 274 271 269 268 266 264 262 261 260 260 260 259 259 259 258 258 258 258
9 11 10 9 9 8 9 9 7 7 7 7 8 7 6 5 4 3 4 5 4 4 6 7 7 6 5 4 4 3 1 360 358 357 356 356 355 355 354 353 352 349 347 345 342 339 335 332 328 324 321 317 314 312 310 308 306 304 302 299 297 294 291 288 286 284 281 278 276 274 271 269 267 265 264 263 262 261 261 261 260 260 259 259 259 259
7 9 10 10 10 10 10 11 10 9 8 8 8 9 7 6 5 4 4 5 4 4 6 9 9 8 7 6 5 4 2 0 359 359 358 358 357 357 357 356 354 351 350 348 346 343 339 336 332 329 325 321 318 315 312 310 308 306 304 302 300 297 294 291 289 286 284 281 279 277 275 272 270 268 266 265 263 262 261 260 260 261 261 260 260 260
5 6 8 9 10 11 11 12 13 11 10 9 9 9 8 7 6 4 4 4 5 5 6 8 10 10 9 7 6 5 3 2 1 360 359 359 359 359 358 357 356 355 353 351 349 346 342 339 336 332 329 325 321 317 315 312 310 307 305 303 300 298 295 292 289 286 283 281 279 276 274 272 270 267 265 263 262 261 260 260 259 259 261 261 262 262
5 5 6 7 8 10 11 12 13 12 11 10 9 9 9 7 6 5 4 4 6 7 7 8 10 11 10 9 7 6 5 4 2 1 0 0 0 0 360 359 358 357 356 355 352 349 346 343 339 337 333 330 326 322 318 315 312 309 307 305 302 300 297 294 290 287 284 282 279 277 274 272 270 268 266 263 261 260 260 259 258 258 259 261 262 263
7 5 5 6 7 8 9 10 11 11 11 10 10 9 9 8 7 6 5 5 6 7 8 9 9 11 11 9 8 7 6 5 4 3 2 2 1 1 1 0 359 359 358 357 355 353 351 348 344 341 338 335 331 327 324 320 317 313 311 308 306 303 301 297 294 291 288 285 282 279 275 272 269 268 266 264 263 261 260 261 261 261 261 261 262 262
9 7 6 6 7 7 8 9 10 10 11 11 10 9 10 9 8 7 7 6 6 7 9 9 10 10 11 10 9 8 7 7 6 5 4 3 3 2 2 2 1 1 360 359 358 357 355 353 350 346 343 340 337 334 331 328 324 321 318 314 311 307 304 301 297 293 290 287 284 280 276 272 269 266 264 264 263 262 261 261 261 262 262 261 261 262
10 9 8 7 6 7 8 8 9 9 10 10 10 9 10 10 9 9 8 8 8 8 8 9 10 10 11 11 10 9 8 8 7 7 6 5 4 3 3 3 3 2 1 0 359 358 357 356 354 351 348 345 343 340 337 335 331 328 325 321 316 312 308 305 301 297 293 290 286 282 278 275 271 268 265 264 263 261 259 257 257 259 260 260 261 263
11 10 9 8 7 7 7 8 8 9 9 9 9 9 9 10 10 10 10 9 9 8 8 9 10 10 11 11 11 11 10 9 8 8 7 7 6 5 4 4 4 4 2 1 0 360 359 358 356 354 353 351 349 346 343 340 337 334 331 327 323 319 315 311 308 303 299 295 291 287 282 278 275 272 268 265 262 259 256 253 254 256 258 259 261 262
12 11 10 9 8 7 7 8 8 8 9 9 9 9 9 10 11 11 11 10 9 8 8 9 9 10 11 12 12 12 11 11 10 9 8 7 7 6 6 6 6 5 3 2 2 1 1 360 358 356 355 354 353 351 349 346 344 341 338 334 330 326 323 319 316 313 309 305 300 296 291 286 282 278 273 268 263 259 255 252 253 255 257 259 260 260
12 12 11 10 9 8 7 8 8 8 8 9 9 9 10 10 12 12 12 11 10 9 8 8 8 9 11 12 13 13 12 12 11 10 9 8 8 8 8 7 7 6 5 4 4 3 3 2 360 358 357 356 355 354 352 351 349 347 344 341 337 333 329 326 322 318 315 311 308 304 299 295 291 287 283 278 271 264 258 255 255 256 257 257 257 258
11 11 11 10 10 9 8 8 8 7 7 8 9 10 11 11 11 12 12 11 11 10 9 8 9 9 10 11 12 13 12 12 12 11 10 10 9 9 8 8 8 8 7 6 6 5 4 3 2 360 358 358 357 356 355 353 352 351 349 347 344 341 337 334 330 325 320 316 312 308 303 299 295 292 289 285 281 274 267 263 261 259 258 258 258 259
11 11 10 10 10 9 9 8 8 7 7 9 9 10 11 11 10 11 11 12 12 12 11 10 10 10 10 10 11 12 13 12 12 11 11 11 11 10 9 9 9 9 9 9 8 7 6 5 3 2 0 360 360 359 357 356 355 354 352 351 349 346 344 342 339 336 332 327 322 317 312 306 300 295 291 288 284 280 274 269 266 263 261 259 259 260
11 10 10 10 9 9 9 8 8 8 8 8 8 9 10 10 10 10 11 11 12 12 12 11 11 11 11 11 11 11 12 13 12 11 11 11 11 11 10 10 10 10 11 11 10 9 8 6 5 4 3 2 2 1 0 359 358 357 355 354 352 350 348 347 345 342 340 337 333 330 326 321 314 307 300 293 288 284 279 274 271 268 263 260 259 258
10 10 9 9 9 9 9 9 9 9 8 7 8 8 9 10 10 10 11 11 12 12 12 12 12 12 12 12 12 12 12 13 13 12 12 11 11 11 11 11 10 11 11 12 12 11 10 9 7 6 5 4 4 3 2 1 1 359 358 356 355 354 353 351 350 348 346 344 342 339 336 331 326 319 312 305 299 292 286 281 277 273 268 265 262 261
9 9 9 8 8 8 9 9 9 8 8 8 8 8 9 10 10 10 10 11 11 11 12 12 11 11 12 13 13 13 13 13 13 13 13 12 11 12 11 11 11 11 12 13 13 12 11 10 9 8 7 6 6 5 5 4 3 2 0 359 357 356 355 354 354 352 351 348 346 344 341 336 331 326 320 314 307 301 294 288 282 277 273 269 267 266
9 8 8 8 8 7 7 8 9 9 9 9 8 8 9 10 11 11 10 10 11 11 11 11 11 11 11 12 13 14 14 14 14 14 14 13 13 12 12 11 11 12 13 13 13 13 12 11 11 10 9 8 7 6 6 6 6 5 3 1 359 358 357 356 356 354 353 351 349 346 343 339 335 330 325 320 314 308 301 295 289 283 278 274 271 269
8 8 7 7 7 7 6 7 8 9 9 9 9 8 8 9 10 11 10 10 10 11 11 12 12 11 11 11 12 13 14 14 14 14 14 14 14 13 12 12 12 13 13 13 14 14 13 12 11 11 10 9 8 7 6 6 6 6 5 3 1 0 360 359 358 356 354 353 351 350 347 345 341 337 332 326 321 315 309 303 297 291 285 280 276 273
7 7 7 7 7 7 7 6 7 8 9 9 9 8 8 8 9 10 10 10 10 11 11 12 12 12 12 11 11 12 13 13 14 14 15 15 14 14 13 13 13 13 14 14 14 14 14 13 12 12 11 9 8 7 7 6 6 5 5 4 3 2 2 1 0 358 357 356 355 354 352 351 348 346 342 337 331 324 318 311 306 300 295 290 286 281
6 6 6 6 7 7 7 7 7 8 9 9 8 8 8 8 7 8 9 10 10 11 11 12 13 13 12 12 12 12 12 13 13 14 14 15 15 14 14 13 13 14 14 15 14 14 15 15 14 13 12 10 9 7 7 7 6 5 4 4 4 3 3 2 2 1 1 0 360 359 357 355 353 352 350 346 341 336 330 324 320 315 310 304 298 291
6 5 5 6 6 6 7 7 7 8 9 9 9 8 7 7 7 8 9 10 10 10 11 12 12 13 13 13 12 12 12 12 13 13 14 14 14 15 15 14 13 14 14 15 15 15 15 15 15 14 13 12 10 9 8 7 6 5 4 4 4 3 3 2 2 1 2 1 1 0 359 358 357 357 356 354 350 346 342 338 335 331 325 319 313 306
4 5 4 5 5 6 6 6 7 8 8 9 8 8 7 7 7 8 9 9 10 10 10 11 12 13 13 14 13 13 12 12 12 13 13 13 14 15 15 15 14 14 14 15 15 15 15 15 15 15 14 13 12 10 10 8 7 7 6 5 5 4 2 2 1 0 0 0 1 1 1 1 1 1 1 359 357 355 352 348 345 340 335 330 324 319
3 4 4 3 4 5 6 6 6 7 7 7 7 7 7 7 7 7 8 9 9 9 10 10 11 12 13 14 14 14 13 12 12 12 13 13 13 14 15 15 15 14 14 14 15 15 15 15 15 15 15 14 13 12 11 10 9 8 8 8 7 5 3 2 0 359 359 359 360 1 2 2 2 2 3 3 2 2 360 356 353 348 343 339 334 329
2 3 3 3 3 3 4 6 6 6 6 7 7 6 7 7 7 7 7 8 9 9 9 10 10 11 12 13 14 14 14 13 12 12 12 13 13 13 14 15 15 15 14 14 14 15 15 15 15 16 16 15 15 14 13 11 10 9 9 9 9 7 5 3 1 360 359 359 359 360 1 1 1 2 3 3 3 3 3 1 359 355 352 348 344 340
2 2 2 2 2 2 3 4 5 6 6 6 6 6 6 6 7 6 6 7 8 9 9 9 10 10 11 12 13 14 14 14 13 12 12 12 13 13 13 14 15 15 15 14 14 14 15 15 15 15 16 16 16 15 14 13 12 10 9 9 9 9 7 5 3 1 0 359 360 0 0 1 1 2 3 4 3 4 3 3 1 359 356 353 350 347
1 1 1 2 2 2 2 3 4 5 5 5 5 5 6 6 6 6 6 7 7 8 8 9 9 10 10 11 12 13 14 14 13 13 13 12 12 12 13 13 14 15 15 15 14 13 14 14 15 15 15 16 16 16 15 14 13 12 11 10 9 10 9 7 5 3 2 1 0 1 2 2 3 3 4 5 6 6 5 4 3 1 359 356 353 350
0 1 1 1 2 2 2 2 3 4 4 4 5 5 5 5 6 6 6 6 7 7 8 8 9 9 10 10 11 12 13 13 14 14 13 13 12 12 12 13 13 14 15 15 15 14 13 13 14 15 15 15 16 16 16 15 14 13 12 11 10 10 10 9 7 5 4 3 2 2 3 4 5 6 7 7 8 9 9 7 5 3 1 359 357 355
359 360 0 1 1 1 1 1 2 2 3 3 4 4 4 5 5 6 6 6 6 6 7 7 8 8 9 10 10 11 12 13 13 14 14 14 13 12 12 12 12 13 14 15 15 15 14 13 13 14 14 15 15 16 15 15 14 14 13 12 11 11 11 11 10 8 6 5 5 5 4 5 7 8 10 10 11 12 12 11 9 6 4 3 1 360
358 358 359 359 360 0 0 0 1 1 2 2 3 3 3 4 4 5 6 6 6 6 6 6 7 8 9 9 10 11 11 12 13 13 14 14 14 13 12 12 12 12 13 13 14 15 15 14 13 13 14 14 14 15 15 15 15 14 13 12 11 11 11 11 12 11 9 7 7 6 6 7 8 9 11 12 13 14 15 15 13 10 8 7 6 4
357 357 358 358 359 359 359 359 360 360 1 1 2 2 2 3 4 4 5 5 5 5 5 5 6 7 8 9 10 10 11 12 12 13 14 14 14 13 13 12 12 12 12 12 13 14 14 15 14 13 13 13 14 14 14 14 14 14 14 13 12 11 10 10 11 11 10 9 8 7 7 7 8 10 12 14 14 16 17 17 16 14 12 11 11 10